GFSSW_con_lsi_000.txt.gz
Lid_Strength_Index
-0 0 0 -0 0 0 0 0 0 -0 0 0 -0 -0 0 1 1 5 7 4 2 -1 1 6 5 6 6 5 5 6 8 10 10 11 9 8 9 7 7 8 7 7 7 6 6
-0 1 0 1 1 1 1 1 0 0 0 -0 -0 -0 1 1 5 6 3 -1 -1 -1 6 6 6 6 6 7 6 7 9 10 9 9 9 8 9 8 8 7 7 7 5 5 5
1 1 1 1 1 1 1 1 1 0 0 0 -0 0 1 2 6 7 1 -0 -0 2 6 6 7 6 7 7 8 8 9 9 9 9 8 8 8 8 8 8 8 9 7 6 6
1 1 2 2 2 1 1 1 1 0 0 0 -0 1 2 5 10 6 1 1 2 6 6 7 6 7 8 8 9 10 9 9 9 9 9 9 9 9 9 8 7 7 6 6 8
1 2 2 2 2 2 2 1 1 0 0 0 -0 1 4 7 8 6 3 4 6 7 8 8 8 8 9 9 9 10 9 10 10 10 10 9 9 10 9 8 6 6 6 8 9
2 2 3 3 3 2 2 1 0 1 0 0 0 2 6 8 6 7 6 6 7 7 7 7 8 8 8 9 10 10 10 10 10 10 11 10 9 10 8 7 7 7 8 9 9
2 3 3 3 3 2 2 1 0 1 0 0 1 4 6 7 6 5 6 7 8 8 8 8 8 8 8 9 10 11 11 9 10 10 11 10 10 11 8 8 9 8 9 10 9
3 3 3 3 3 3 2 1 1 1 0 1 2 4 7 5 5 4 5 7 7 8 8 9 8 9 9 9 10 11 11 13 10 10 11 9 13 9 8 10 10 10 10 10 10
3 4 4 4 3 3 1 1 1 1 1 1 4 5 8 4 5 5 6 8 8 8 9 9 9 10 10 10 11 11 14 14 13 10 11 11 12 10 10 10 11 11 11 11 11
3 4 4 4 3 2 1 1 1 2 4 5 6 7 6 7 6 6 6 8 8 9 9 8 9 10 10 11 15 14 14 13 14 12 11 11 11 10 11 11 12 12 12 12 11
4 4 4 4 3 2 2 4 6 6 6 8 8 9 8 5 6 7 8 8 8 8 11 10 13 12 12 12 12 13 13 14 12 11 12 12 12 12 12 13 13 13 13 13 11
4 4 4 4 3 2 3 6 7 7 9 8 7 7 7 7 9 8 7 9 9 11 10 12 15 12 12 12 13 13 14 14 12 11 13 13 14 13 13 15 14 13 14 13 12
4 4 4 4 3 3 5 6 6 5 9 9 8 8 7 8 10 9 9 10 11 11 12 14 14 12 13 13 14 14 14 14 15 14 13 14 15 14 14 14 14 13 13 12 12
4 4 5 4 6 4 6 5 5 5 10 10 9 8 9 9 11 9 10 10 11 13 13 14 12 13 13 14 14 15 14 14 16 16 18 14 20 15 14 15 15 14 13 13 12
4 5 5 5 7 6 6 5 6 7 16 9 9 7 9 10 10 10 10 10 12 14 15 15 14 14 14 14 13 14 14 15 16 16 17 16 18 15 13 16 16 14 13 13 12
5 5 5 6 5 6 6 7 8 10 16 11 9 10 10 11 11 10 11 10 11 13 13 14 13 13 13 13 14 15 15 15 15 16 20 18 20 18 17 18 16 14 13 12 12
5 5 5 5 8 6 6 8 10 14 10 12 12 11 12 12 12 12 13 14 15 17 16 15 15 14 14 15 14 16 17 20 21 20 20 18 20 18 17 16 15 15 14 12 11
5 5 5 5 5 5 7 8 15 11 10 11 11 12 13 13 13 14 15 15 15 15 16 18 19 15 15 16 18 17 17 21 25 23 22 19 22 18 16 14 14 13 12 12 11
5 5 6 5 5 5 9 13 12 11 11 12 12 13 15 13 14 15 16 16 15 15 17 19 19 17 18 16 16 17 19 17 21 23 24 21 19 16 15 15 14 14 13 13 12
7 7 8 4 4 7 11 12 11 10 11 11 12 11 13 13 14 16 16 15 17 16 16 17 20 18 18 17 18 18 17 21 20 26 26 22 21 20 17 17 16 15 14 13 12
7 12 8 4 5 7 14 13 12 11 9 11 12 13 13 14 14 15 17 16 16 18 16 18 19 20 19 20 20 20 21 21 21 22 25 26 22 15 16 15 16 15 13 13 11
8 13 6 4 9 9 13 13 12 12 10 11 11 12 13 13 15 17 17 16 16 17 19 19 20 22 21 19 19 19 20 20 23 25 23 23 24 15 15 14 13 14 13 12 10
10 11 5 6 13 13 12 12 11 11 11 12 12 12 12 15 17 16 16 18 17 18 20 19 21 23 24 22 20 21 20 20 20 21 24 25 21 14 13 14 14 14 13 12 11
10 13 9 8 8 11 11 12 12 10 11 11 12 13 16 17 17 18 18 19 18 19 18 18 21 21 23 21 21 23 21 20 21 23 23 22 20 17 16 15 14 13 13 12 11
9 12 11 12 12 11 11 11 12 13 12 12 16 15 17 19 19 19 18 19 18 18 18 19 23 21 21 20 20 21 21 20 21 20 23 21 20 17 15 15 13 12 13 13 12
7 11 11 11 9 12 12 13 13 12 14 15 17 17 17 17 17 19 18 19 20 19 20 19 22 22 24 21 21 22 21 20 20 19 20 19 19 15 14 12 13 13 14 13 13
8 9 10 8 11 12 11 12 11 11 13 12 15 17 18 16 15 16 16 16 18 20 20 21 22 24 23 23 23 25 22 20 20 19 19 21 17 15 15 14 13 14 13 14 14

GFSSW_con_lsi_003.txt.gz
Lid_Strength_Index
-0 0 0 1 1 1 1 1 1 -0 -0 -0 -0 -0 0 1 1 3 6 4 2 -1 0 4 5 4 4 4 4 4 8 9 10 9 9 7 8 6 6 7 7 7 6 6 5
1 1 1 1 1 1 1 1 1 0 -0 -0 -0 -0 0 1 4 5 3 -1 -1 -1 5 5 6 5 5 6 5 6 8 9 8 8 8 7 8 8 8 7 8 7 6 6 6
1 1 1 2 2 1 1 1 1 0 -0 -0 -0 -0 1 1 5 6 1 0 0 2 5 5 5 5 6 6 6 7 9 8 8 7 7 8 8 8 8 9 8 8 7 7 8
1 1 2 2 2 2 1 1 1 0 0 -0 -0 -0 1 3 9 5 2 1 2 5 5 5 5 7 7 8 7 9 8 8 8 8 8 9 8 9 8 8 8 7 8 9 9
1 2 2 2 2 2 2 1 1 0 0 -0 -1 -0 2 5 6 5 2 3 5 5 6 6 7 7 8 8 7 8 8 8 8 8 8 8 9 9 9 8 8 8 9 9 9
2 2 3 3 3 2 2 1 0 0 0 -0 -1 1 4 7 5 5 5 5 6 6 6 6 7 7 7 8 9 8 9 9 9 9 9 9 9 9 8 8 9 10 10 10 10
2 3 3 3 3 2 2 1 0 0 0 -0 1 3 4 6 5 3 5 6 6 6 7 7 7 7 7 8 8 9 10 9 9 9 10 9 10 10 8 9 9 10 10 10 10
2 3 3 3 3 3 2 1 1 0 0 0 1 3 6 4 3 4 5 5 6 6 7 7 7 7 8 8 9 10 10 11 10 10 10 10 13 9 9 10 11 12 11 11 11
2 3 3 3 3 3 2 1 1 1 1 1 2 3 7 4 4 4 5 7 6 6 7 8 7 8 8 10 10 10 12 12 12 10 10 11 12 9 10 11 12 12 12 12 11
3 3 3 4 3 2 2 1 1 2 3 4 4 5 5 6 5 5 6 7 7 7 7 7 8 9 9 11 14 14 14 12 12 11 10 11 11 11 12 12 13 13 13 13 12
3 3 3 4 3 2 2 3 4 4 5 6 6 6 6 4 5 6 7 7 7 7 9 8 11 11 11 12 12 12 13 13 12 11 12 13 13 12 13 13 14 14 14 14 13
3 3 4 4 3 2 3 6 6 6 8 6 6 5 5 5 8 7 6 8 8 9 8 9 10 11 11 11 12 12 13 13 12 11 12 13 14 13 14 15 14 15 14 14 13
3 3 4 4 3 2 5 6 4 4 8 7 6 6 6 7 8 8 7 8 9 9 10 12 10 11 12 12 13 13 14 14 15 13 12 13 15 15 15 15 15 14 13 13 14
3 4 5 4 4 3 5 5 4 4 9 9 8 7 7 8 10 8 8 9 9 11 11 12 11 12 12 13 13 15 14 14 15 15 17 13 19 15 16 16 16 15 14 14 14
3 4 5 4 5 5 5 4 4 5 15 9 8 6 8 9 9 9 8 9 11 11 12 12 13 13 14 13 13 14 14 15 15 16 16 16 18 15 14 15 16 15 15 14 14
4 5 5 5 4 5 5 5 6 9 15 10 7 8 9 10 9 9 9 8 9 12 12 13 12 12 12 13 14 14 14 14 15 16 20 17 18 17 15 16 16 15 15 14 14
4 5 5 4 6 5 4 6 9 13 8 10 10 9 10 9 10 11 11 11 12 14 13 13 13 13 13 14 13 14 16 20 19 18 19 17 19 17 17 17 16 16 15 14 13
5 5 5 5 4 4 4 8 13 10 9 9 10 10 10 10 10 12 12 12 12 13 15 16 16 14 14 15 16 16 17 20 23 21 20 18 22 18 15 15 15 15 15 14 14
5 3 4 4 4 3 8 11 11 9 8 10 10 10 10 11 12 12 13 12 12 12 15 16 17 15 16 15 15 16 19 17 20 19 23 20 18 16 16 16 15 15 15 15 14
4 5 4 3 3 5 10 11 9 7 9 9 11 9 11 10 12 12 12 11 13 13 13 15 18 15 17 16 17 18 16 21 20 25 25 20 20 19 18 17 16 16 16 15 13
6 7 5 3 3 8 12 10 9 7 8 9 10 10 10 11 11 11 11 12 12 15 14 15 17 18 18 19 18 20 20 20 20 21 24 24 21 17 17 16 17 16 15 15 13
7 9 5 3 9 9 11 9 9 9 9 9 10 9 10 10 11 12 12 11 12 15 18 16 18 20 19 18 18 19 19 19 23 22 22 22 23 15 15 15 16 16 15 14 12
9 8 5 5 11 10 9 10 10 10 10 10 10 10 9 11 13 12 11 15 14 16 17 18 20 22 21 21 20 21 20 19 19 21 23 24 22 15 15 15 15 15 15 13 13
8 10 8 8 8 9 9 10 11 8 9 9 9 9 10 13 11 13 14 17 16 16 17 16 19 20 20 18 20 22 21 19 20 23 22 22 21 17 15 16 16 16 14 13 13
8 10 8 11 11 9 8 9 10 10 9 9 11 11 12 14 13 15 15 18 18 17 18 18 21 20 19 18 19 20 20 20 22 20 22 21 20 17 16 16 16 14 14 14 13
7 8 10 9 7 10 9 10 10 9 8 11 12 10 12 13 13 13 16 17 19 18 18 18 21 21 23 21 20 22 20 19 20 20 20 20 20 15 14 15 16 14 14 14 13
3 8 8 8 9 10 10 10 9 8 8 8 9 11 13 13 14 15 14 15 15 18 19 20 21 23 24 22 23 24 21 20 19 18 19 21 18 15 16 16 15 15 14 13 14

GFSSW_con_lsi_006.txt.gz
Lid_Strength_Index
0 0 0 1 1 1 1 1 0 -0 -0 -1 -1 -1 -1 -0 1 3 6 4 2 -1 -0 4 5 5 5 4 4 5 10 11 11 11 10 9 10 9 8 9 9 8 10 10 9
0 0 1 1 1 1 1 1 0 0 -0 -0 -0 -1 -0 0 2 6 3 0 -1 -1 5 6 6 6 6 6 6 8 10 10 9 10 10 9 10 11 10 10 11 10 10 9 10
1 1 1 1 1 1 1 1 0 0 -0 -0 -0 -1 0 1 4 6 1 -0 0 2 5 5 5 5 7 7 8 8 10 9 9 8 9 10 11 10 11 12 11 12 12 11 11
1 1 2 2 2 2 1 1 0 0 -0 -0 -1 -1 1 2 8 5 1 0 0 3 5 6 6 7 8 9 8 11 9 8 8 9 10 11 10 11 11 11 11 11 11 11 12
1 2 2 2 2 2 2 1 0 0 0 -0 -1 -1 2 5 6 4 1 3 5 5 6 6 8 8 10 9 9 10 10 9 9 10 10 10 11 11 12 11 11 11 11 12 12
1 2 2 2 2 2 2 1 1 0 0 -0 -1 1 2 6 4 3 5 5 6 6 6 7 8 8 9 9 10 10 10 10 10 10 10 11 12 11 11 11 12 11 12 12 12
1 2 2 2 2 3 2 1 1 1 0 -0 -0 2 3 6 4 3 5 6 6 7 6 7 7 8 8 9 9 10 12 11 11 11 11 11 12 12 11 11 12 12 13 12 12
2 2 2 2 3 3 2 1 1 1 1 -0 0 2 5 3 3 4 4 5 6 6 6 7 7 8 9 9 10 12 13 14 11 11 11 12 15 13 12 12 14 14 15 14 13
2 3 2 2 3 3 2 1 1 1 1 0 2 3 6 3 4 4 5 7 6 6 7 7 7 9 9 11 13 13 16 15 13 11 12 12 15 12 12 13 14 15 15 15 14
2 3 2 3 3 3 2 1 0 1 2 4 4 5 5 5 4 4 5 6 7 7 7 8 9 11 11 13 17 17 17 15 15 13 12 13 13 13 13 14 16 17 16 16 16
2 3 3 3 3 2 2 3 5 4 6 7 7 7 6 4 4 6 6 7 7 8 9 8 12 13 12 13 14 14 15 15 13 12 15 14 15 14 14 15 17 17 17 17 17
2 3 3 4 3 2 2 6 6 6 10 6 6 6 4 5 8 7 6 9 9 11 9 10 12 12 12 12 13 13 15 15 14 12 14 15 15 15 15 16 16 17 17 17 17
2 3 3 4 3 3 5 6 4 4 9 7 6 6 6 6 8 8 8 9 10 10 11 13 11 11 12 13 14 14 15 16 16 14 14 15 17 18 17 16 16 16 16 17 17
3 3 4 4 4 4 5 4 3 4 11 9 9 7 7 7 9 7 8 9 9 11 13 13 12 12 13 13 14 16 15 15 16 18 20 16 22 18 18 18 17 17 18 18 18
3 3 4 4 5 5 5 4 4 6 17 9 8 7 7 9 9 8 8 9 11 11 13 13 14 14 14 14 13 15 15 16 16 18 19 18 21 19 18 19 18 18 18 18 18
3 4 5 4 4 5 5 5 6 11 16 10 8 9 9 10 9 8 9 9 10 12 12 13 12 13 14 12 13 14 16 16 16 18 23 19 20 20 19 17 18 18 18 17 18
3 5 5 5 6 5 4 6 11 15 9 11 10 9 10 10 10 10 10 12 13 14 14 13 14 13 13 15 14 15 18 22 23 23 23 20 22 19 19 18 18 18 18 18 18
4 5 4 5 4 5 4 10 15 11 10 10 10 10 11 10 10 11 13 14 11 13 15 16 17 14 13 16 18 17 19 23 27 25 24 21 24 20 18 17 17 17 17 17 17
5 4 4 4 4 4 9 13 14 11 9 10 11 12 11 11 12 13 13 13 12 12 16 16 16 15 16 16 16 18 21 18 22 27 28 24 20 18 18 18 18 18 18 18 17
4 5 4 4 4 5 12 12 11 8 9 10 12 10 13 12 13 13 13 12 13 13 13 15 18 16 18 17 18 19 17 22 22 30 30 23 22 21 21 19 19 19 19 18 17
5 7 5 4 4 8 15 13 10 7 8 10 11 12 11 12 12 13 12 12 12 14 15 16 17 19 18 20 20 21 22 21 21 22 27 28 24 20 19 18 19 19 18 17 17
5 9 5 3 9 9 11 10 9 9 9 10 10 11 11 11 12 12 12 11 13 14 17 16 17 21 19 19 19 20 20 20 25 25 24 25 24 17 17 17 18 19 18 17 16
8 7 5 5 12 11 9 10 9 9 10 11 11 10 10 12 14 12 11 14 13 15 17 17 19 22 21 22 20 22 21 21 21 21 24 25 24 17 17 17 18 19 18 17 16
7 12 10 9 9 11 11 11 11 10 10 10 10 10 11 12 11 13 13 15 14 15 15 14 18 20 19 18 20 23 22 21 22 24 23 23 22 18 16 17 18 18 18 17 16
6 9 9 13 12 11 10 10 11 11 10 9 11 11 11 13 13 13 12 17 17 16 17 17 21 20 19 20 20 21 21 22 23 22 23 21 21 18 17 19 19 19 17 17 16
8 9 9 9 9 11 11 11 11 10 9 11 11 10 11 13 12 14 12 14 17 18 18 18 22 20 22 21 22 23 22 21 21 21 21 20 21 15 16 17 20 17 17 17 17
5 5 7 9 10 10 11 11 10 9 8 8 8 10 12 11 10 12 13 12 14 17 19 19 21 22 23 22 22 25 22 21 20 19 19 22 19 17 18 18 19 18 17 17 17

GFSSW_con_lsi_009.txt.gz
Lid_Strength_Index
0 0 0 0 0 1 1 0 0 -0 -0 -0 -1 -1 -1 -0 0 4 8 5 3 -1 -0 4 6 7 7 7 7 8 11 13 14 13 12 11 11 10 10 12 12 11 12 12 11
0 0 0 0 1 1 1 1 0 0 -0 -0 -0 -1 -0 0 3 7 3 -0 -1 -0 6 8 8 7 9 8 8 10 12 12 12 12 12 11 12 11 12 12 13 13 12 11 12
0 1 1 1 1 1 1 1 0 0 0 0 -0 -1 0 2 6 7 1 -1 -0 1 5 7 7 7 9 9 10 11 12 11 10 10 10 11 12 11 13 14 14 14 14 13 13
1 1 1 1 1 1 1 1 0 0 0 0 -0 -0 1 3 10 6 -1 -1 -1 3 6 7 8 10 11 11 10 13 10 10 9 10 11 12 12 13 13 14 12 13 13 13 14
1 1 1 1 1 2 1 1 1 0 0 0 -0 -0 3 7 7 5 1 2 6 6 7 8 9 10 12 11 11 12 11 11 10 11 12 11 12 13 14 13 12 12 13 14 14
1 1 2 2 2 2 2 1 1 1 1 0 -0 1 5 9 5 4 6 6 7 7 8 8 9 9 11 11 12 11 11 11 11 11 11 12 13 12 14 13 13 13 14 14 14
1 2 2 2 2 2 2 1 1 1 0 0 -0 2 6 7 5 5 6 7 7 8 8 8 9 9 9 11 10 11 13 12 12 12 12 12 14 14 13 13 14 14 14 14 14
1 2 2 2 2 2 2 1 1 1 0 0 0 5 8 5 6 5 5 7 7 8 7 8 8 9 10 10 11 13 14 16 12 12 12 14 17 14 13 14 16 16 17 15 15
1 2 2 2 2 3 2 1 1 0 0 1 4 7 9 4 5 5 7 8 7 8 8 7 8 10 11 13 15 14 17 16 14 12 13 14 16 14 13 15 17 17 17 16 17
1 2 2 2 3 2 2 1 1 1 2 4 5 8 7 7 5 6 7 7 8 8 8 9 10 13 13 15 18 18 18 16 16 13 13 14 15 14 14 15 17 18 18 18 17
1 2 2 2 3 2 3 6 8 7 8 9 9 9 7 5 6 7 8 8 8 9 11 10 13 14 14 15 15 15 16 17 15 13 14 15 15 16 15 17 19 19 18 18 18
1 2 2 3 3 2 5 8 8 7 11 8 7 7 6 7 9 8 8 10 10 12 11 12 13 12 12 13 13 14 15 16 14 14 15 16 16 14 16 17 18 18 19 18 18
2 3 3 3 3 4 7 7 5 6 11 9 7 7 7 7 10 9 9 10 11 12 13 14 12 12 13 14 14 15 16 17 16 15 15 17 18 18 17 17 17 17 18 18 18
2 3 3 4 5 7 7 5 5 6 14 12 10 8 9 9 11 8 9 10 11 12 13 14 12 13 14 14 13 17 15 16 16 18 21 18 22 20 19 18 18 18 20 19 18
3 3 4 4 8 8 6 5 6 8 20 11 9 8 9 11 10 10 9 11 12 12 12 12 14 14 15 14 13 15 15 16 17 18 21 19 22 20 19 20 19 19 20 19 18
3 4 5 6 8 7 6 7 9 13 18 12 9 10 11 11 11 10 10 10 11 14 14 13 13 13 14 13 14 14 16 16 18 20 24 20 20 22 21 19 19 20 20 18 18
2 4 5 6 9 7 6 8 15 17 12 12 12 11 12 12 12 12 12 13 13 15 16 14 15 14 13 15 14 16 19 22 24 25 23 21 22 19 19 18 18 20 20 19 18
3 5 5 5 6 6 7 12 18 14 12 11 12 12 13 12 12 13 14 15 13 14 16 17 18 15 14 16 16 17 19 21 26 26 23 21 23 20 19 19 19 19 19 19 19
4 7 7 6 5 6 12 16 15 13 11 11 12 14 14 12 13 15 15 15 13 13 15 17 17 16 16 16 16 18 20 18 21 31 29 24 21 20 19 19 19 20 19 19 19
4 5 6 6 5 8 15 13 13 10 11 11 13 13 15 13 14 15 14 13 13 13 13 15 18 17 18 17 18 19 17 21 21 25 30 25 23 21 22 20 20 20 20 19 19
5 8 6 5 6 11 15 15 12 9 9 11 13 13 13 13 14 15 14 13 13 15 14 16 17 18 18 19 19 21 21 21 20 21 24 28 23 20 20 19 20 20 19 19 18
7 11 7 5 11 13 13 12 10 10 8 9 11 11 12 12 13 13 13 11 13 14 16 15 17 21 19 18 18 20 20 19 22 23 23 23 23 18 18 18 19 20 19 18 17
9 10 7 7 13 13 12 11 10 11 10 11 12 11 10 12 14 12 12 14 13 14 16 16 19 23 19 21 20 21 21 20 20 21 23 24 23 19 18 19 19 20 19 18 18
9 12 10 9 11 14 13 12 12 10 10 11 12 11 12 13 11 14 13 14 14 15 12 14 18 16 17 16 19 21 22 21 21 22 22 22 20 19 19 19 20 20 19 19 19
9 11 10 13 12 12 11 12 13 13 12 10 11 11 12 13 14 13 12 17 16 14 15 16 20 19 18 18 19 18 19 20 22 20 21 20 20 17 16 16 17 19 18 19 19
11 13 12 13 12 12 12 13 13 12 11 12 12 12 11 12 12 14 12 14 15 17 18 16 19 18 20 19 19 20 20 20 20 20 20 20 20 15 15 18 20 19 19 19 19
7 9 10 12 14 15 15 14 12 10 10 9 10 10 12 11 10 10 11 12 12 16 18 18 19 21 21 20 21 24 21 20 19 19 19 22 18 16 17 19 20 19 19 19 19

GFSSW_con_lsi_012.txt.gz
Lid_Strength_Index
-0 0 0 -0 0 0 1 0 0 -0 -0 -0 -0 -1 -1 -0 1 6 8 5 3 -1 0 5 7 7 8 8 7 9 12 14 14 13 13 12 12 11 12 13 13 13 13 13 12
0 0 0 0 0 0 1 1 0 -0 -0 -0 -0 -1 -0 0 5 7 3 -0 -2 -1 7 8 9 8 9 9 9 11 13 13 12 13 13 12 12 12 13 14 14 14 13 13 14
0 1 1 0 0 0 1 1 0 0 0 0 -0 -0 -0 2 7 7 0 -1 -1 0 6 8 8 8 10 10 11 12 13 12 11 11 11 12 13 12 14 15 14 15 15 15 15
0 1 1 1 1 1 1 1 1 0 0 0 0 -0 1 4 11 6 -1 -1 -1 4 7 8 9 10 12 12 10 13 11 11 10 11 12 12 12 13 14 14 13 14 14 15 15
1 1 1 1 1 1 1 1 1 0 0 0 -0 0 4 8 8 6 1 3 6 6 8 9 10 11 12 12 11 13 12 11 11 11 12 12 13 14 15 14 14 14 14 15 15
1 1 1 1 1 1 1 1 1 0 0 0 -0 1 6 10 6 5 6 6 7 7 8 9 10 10 11 11 13 12 11 11 11 11 12 13 14 13 14 14 15 14 15 15 15
1 1 1 1 1 1 2 1 1 1 0 0 -0 3 7 8 6 6 7 8 8 8 8 9 9 10 10 12 10 12 13 12 12 12 12 12 15 14 13 14 15 15 15 15 15
1 1 1 1 1 1 2 1 1 1 0 0 0 4 9 5 6 6 7 7 7 8 8 8 8 9 11 11 12 14 14 16 13 12 13 14 16 14 14 15 16 16 17 15 16
2 1 1 1 1 2 2 1 1 0 0 1 4 6 10 4 6 6 7 8 8 8 8 8 8 10 11 14 15 15 17 16 15 12 13 14 16 14 15 15 16 18 17 17 18
1 1 1 1 1 2 2 1 1 2 3 4 6 9 8 8 6 6 7 8 9 9 8 9 11 13 13 14 16 17 17 16 17 14 14 15 15 15 15 16 17 18 18 18 18
1 1 2 2 2 2 3 7 8 8 8 9 10 9 8 6 6 7 8 9 9 9 11 11 13 14 13 14 14 15 16 17 15 13 14 14 14 15 14 17 19 19 19 19 19
1 2 2 2 2 2 6 10 9 8 11 9 9 8 7 7 10 9 8 11 10 12 12 12 14 12 12 13 14 15 16 16 14 14 15 15 16 15 15 16 17 18 19 19 19
1 2 2 2 2 5 9 9 6 7 12 10 8 8 7 8 10 10 10 11 12 12 13 14 12 12 13 14 15 15 16 16 16 16 16 17 19 16 17 16 18 18 18 19 19
1 2 3 3 6 8 8 6 5 7 15 13 11 8 9 9 11 9 10 11 12 12 13 14 13 13 14 14 14 17 15 15 16 18 21 18 22 19 19 18 18 18 20 20 19
1 2 3 4 10 9 7 6 7 10 21 13 10 8 9 11 11 10 10 11 12 12 13 13 15 15 15 14 13 15 15 16 17 19 21 20 22 20 20 19 19 18 20 20 19
1 2 4 5 9 8 7 8 10 15 19 13 10 11 12 12 11 10 11 11 12 14 15 13 13 14 14 14 14 14 16 17 18 20 24 20 21 22 22 19 18 18 20 19 19
1 2 5 6 9 7 7 10 17 19 14 13 12 11 12 13 13 12 13 14 13 15 16 15 15 14 13 15 14 15 18 21 22 24 22 21 22 18 18 18 18 18 20 20 19
1 4 5 5 6 7 8 12 19 16 15 12 12 13 13 12 13 13 14 15 14 14 17 17 17 15 14 15 15 16 17 20 24 24 19 21 23 20 20 19 17 17 19 20 20
3 5 5 5 6 6 13 17 16 15 13 12 13 15 15 13 13 15 16 16 13 13 14 17 17 16 16 16 15 17 19 17 21 31 28 23 21 19 21 21 21 20 20 20 20
5 5 6 5 5 8 15 14 14 12 11 12 14 13 15 14 14 15 16 14 13 13 13 15 17 17 18 17 17 17 16 20 21 25 27 24 23 20 22 22 21 21 21 21 20
6 10 9 6 7 10 14 14 12 10 10 12 13 14 14 14 14 16 15 13 12 14 14 16 16 19 18 19 18 20 20 20 19 19 23 24 20 19 20 19 21 20 20 20 19
5 12 9 6 11 15 14 14 11 12 9 10 11 12 12 12 14 14 14 12 13 14 15 15 17 20 19 18 18 18 18 18 20 22 21 22 21 19 18 18 19 20 20 20 19
9 11 6 6 13 14 14 13 12 14 12 12 12 11 11 13 14 13 12 13 14 14 15 16 18 22 19 19 20 20 19 17 18 19 21 24 20 19 19 20 19 20 20 19 19
10 14 10 10 11 13 13 13 13 11 12 12 13 13 14 14 12 14 15 15 14 14 11 12 17 17 17 16 18 20 21 19 17 20 20 20 19 16 18 20 20 20 20 20 19
10 13 12 15 14 12 12 14 14 13 11 10 12 12 13 14 14 14 13 16 16 14 15 15 18 17 15 14 17 16 16 20 20 19 20 18 17 15 13 16 19 19 20 19 20
9 11 12 15 13 13 13 14 15 15 14 13 13 11 11 13 12 13 11 15 15 18 18 17 17 17 18 16 17 19 17 17 18 17 18 17 18 13 13 17 20 19 19 19 19
5 8 9 11 14 14 14 14 14 13 13 12 12 11 13 13 10 9 10 11 11 15 18 18 18 18 18 18 19 22 19 18 17 16 17 20 16 14 16 19 20 20 19 19 19

GFSSW_con_lsi_015.txt.gz
Lid_Strength_Index
-0 -0 -0 -0 -0 0 0 0 0 -0 -0 -0 -0 -1 -1 -0 1 6 8 5 3 -1 0 6 8 8 8 8 8 10 13 15 15 14 14 12 13 12 13 14 14 14 14 13 13
-0 0 0 0 0 0 0 0 0 0 -0 -0 -0 -0 -0 0 6 8 2 0 -2 -1 7 8 9 9 10 10 10 12 14 14 13 13 13 12 13 13 14 15 16 16 14 14 14
1 0 0 0 0 0 0 0 0 0 0 0 0 -0 0 2 8 8 -0 -1 -1 -0 7 8 8 9 11 10 12 13 14 12 12 12 12 13 13 13 14 15 15 16 16 15 15
1 1 1 1 0 0 0 1 0 0 0 0 0 -0 1 5 12 7 -1 -1 -0 5 7 8 9 11 12 12 11 13 12 12 11 11 12 13 12 14 14 14 13 14 15 16 16
2 2 1 1 1 0 0 1 0 0 0 0 0 0 5 9 9 6 2 3 7 7 9 9 10 11 13 13 12 13 12 12 11 11 12 12 13 13 14 15 14 15 15 16 16
2 2 1 1 1 0 0 1 1 0 0 0 -0 1 7 11 6 5 7 7 8 8 9 9 11 10 11 12 13 13 12 12 12 12 12 13 14 14 15 15 16 15 16 16 16
1 2 1 1 1 0 0 1 1 1 0 0 -0 3 8 8 7 6 7 8 8 8 9 9 9 10 11 12 11 12 13 13 13 12 12 13 14 14 14 15 16 16 16 16 16
1 2 1 1 1 1 0 1 1 1 -0 0 0 5 10 6 7 6 8 8 8 8 8 9 9 10 11 11 12 13 14 15 13 12 13 13 15 13 14 15 16 17 17 16 16
1 2 1 1 1 1 1 1 1 0 0 0 4 7 10 4 7 6 8 9 9 9 9 8 9 11 12 14 15 15 17 17 14 12 14 14 16 14 14 15 16 17 17 17 18
2 1 1 1 1 1 1 1 1 2 3 4 6 8 9 9 7 7 8 8 9 9 9 10 12 13 14 14 16 16 17 17 17 15 15 15 15 14 15 15 16 17 17 17 18
2 1 1 1 1 1 3 7 8 9 8 10 11 9 8 6 7 8 9 9 9 10 12 11 13 15 13 13 14 16 17 17 16 14 15 15 15 12 15 16 17 19 18 18 19
1 1 1 1 1 1 7 10 9 9 11 10 9 9 7 7 10 9 9 11 11 12 12 13 14 13 13 13 15 16 17 17 15 15 15 16 16 14 15 15 15 16 18 18 19
1 1 1 2 2 6 9 10 6 8 12 11 8 9 8 8 10 10 10 11 12 13 13 14 13 13 14 15 15 16 17 17 16 16 16 18 20 16 16 15 15 15 16 17 18
1 1 1 2 6 8 8 7 6 8 16 14 11 9 9 10 12 10 10 11 12 12 13 14 13 14 15 15 15 17 15 16 16 18 20 18 21 19 17 16 17 17 18 18 19
2 1 2 3 9 10 7 7 8 11 22 13 11 9 10 12 12 12 10 11 12 13 13 13 15 15 16 15 14 15 15 17 17 18 21 20 21 20 19 18 16 17 18 18 18
2 2 3 5 7 8 7 8 10 16 21 15 11 12 12 12 12 11 12 11 12 13 15 14 14 15 15 15 14 14 16 17 19 20 23 20 20 22 19 18 17 18 18 18 19
2 1 4 6 8 7 7 10 16 20 15 15 13 12 13 14 13 13 13 14 14 16 16 16 15 15 14 16 15 15 17 20 21 24 22 21 23 18 15 16 17 18 18 19 19
2 2 4 4 6 7 10 13 20 17 16 13 12 13 14 13 14 13 14 15 14 14 17 17 17 16 14 15 15 17 16 19 24 24 21 21 22 19 17 18 19 18 18 19 19
4 5 5 6 6 6 12 17 16 15 14 13 13 15 15 13 13 15 16 16 13 13 14 17 18 17 16 16 15 17 19 17 20 31 27 21 21 18 19 19 20 19 20 20 19
5 6 7 7 8 10 14 14 15 12 12 12 14 13 16 14 15 15 16 15 13 13 13 14 16 17 18 17 18 17 16 20 21 26 28 23 22 19 18 19 21 21 21 20 20
5 8 7 6 8 11 15 15 14 12 11 12 14 15 14 14 14 16 14 14 13 14 13 14 15 18 18 19 18 19 20 19 19 19 23 26 20 18 16 17 20 21 20 20 20
7 12 9 5 9 12 14 15 12 14 12 13 14 14 14 15 15 16 16 13 12 13 14 14 16 19 19 20 19 19 18 17 20 22 22 21 19 17 17 17 19 20 19 20 19
9 10 8 8 15 13 14 13 11 13 12 12 13 13 13 14 15 16 14 13 14 14 15 15 18 23 20 20 20 20 19 17 18 18 19 21 19 19 19 20 19 20 20 19 20
9 13 11 10 11 14 15 15 14 12 12 12 12 11 13 14 12 13 14 13 14 14 11 11 16 17 18 17 19 21 20 19 17 19 18 18 17 16 14 16 19 20 20 20 19
9 12 12 14 13 12 13 15 15 15 13 13 14 14 14 16 15 15 14 16 15 13 14 13 15 17 14 14 17 16 16 20 19 17 18 16 17 15 13 13 14 17 19 20 20
9 10 11 11 12 13 12 14 15 15 14 15 15 14 13 15 15 16 13 13 13 18 17 16 16 17 18 16 16 17 16 16 18 17 16 16 17 13 11 12 13 18 19 20 19
5 6 9 11 12 13 14 13 13 12 12 12 13 13 14 13 11 11 13 12 12 14 19 19 19 21 19 17 17 20 18 16 15 15 15 18 15 13 13 17 17 19 19 19 19

GFSSW_con_lsi_021.txt.gz
Lid_Strength_Index
1 1 1 -0 -0 -0 -1 -1 -0 0 -0 -0 -0 -1 -0 -0 0 7 9 5 4 -1 -0 6 8 7 7 8 8 9 12 14 13 14 12 12 12 12 12 13 13 12 12 12 12
1 1 1 1 0 -0 -0 -0 -0 0 0 -0 0 -0 -1 0 7 9 3 -0 -1 -1 8 8 9 8 9 9 9 11 13 13 12 12 12 12 12 12 12 13 13 14 13 13 13
2 2 2 2 1 0 -0 -0 -0 0 0 0 0 -0 -0 2 8 9 0 -0 -0 1 7 8 8 9 10 10 10 12 13 12 11 11 11 12 12 12 13 13 12 13 14 14 14
2 2 2 1 1 1 0 -0 -0 -0 0 0 -0 0 1 6 12 8 -0 0 1 5 8 9 9 10 11 12 11 12 12 11 10 10 11 12 12 12 13 11 11 12 13 14 14
2 1 1 1 1 1 1 0 -0 -0 0 0 -0 0 5 10 9 6 2 4 8 8 9 9 10 11 11 12 12 12 12 11 11 11 11 12 12 12 13 12 12 13 14 14 14
2 1 1 1 1 1 1 0 -0 0 0 0 -0 1 8 11 7 7 8 8 9 9 10 9 10 10 11 11 12 12 11 11 11 11 12 12 12 12 12 14 14 15 14 14 14
2 2 1 1 1 1 1 1 0 0 1 0 -0 4 9 9 7 7 8 9 9 9 9 10 9 10 10 12 11 12 13 13 12 12 12 12 13 13 12 14 15 15 15 15 15
2 2 2 1 1 1 1 0 1 1 0 0 0 6 9 7 7 7 8 9 8 9 9 9 9 9 11 11 12 14 14 15 13 12 12 12 14 11 13 14 14 15 16 15 15
2 2 2 1 1 1 1 1 1 1 0 0 6 8 10 4 7 7 9 9 9 9 9 8 9 11 11 13 14 14 16 16 14 13 13 14 14 12 14 15 14 15 15 15 15
2 2 2 2 1 1 1 1 2 2 4 5 7 9 9 10 7 7 9 9 10 9 9 10 11 13 14 14 17 17 16 16 16 14 14 15 15 12 13 15 14 14 15 15 15
2 2 2 2 1 1 3 8 9 12 10 10 11 11 10 7 7 9 9 9 9 10 12 12 13 14 13 13 15 15 16 16 15 15 15 16 15 13 11 14 14 14 15 15 15
3 3 3 2 1 1 8 10 10 10 12 10 11 10 9 8 10 9 9 11 12 13 13 13 14 13 13 14 14 16 16 17 15 15 16 16 16 14 13 12 11 12 14 15 15
3 4 3 2 1 7 9 9 7 9 13 11 10 10 9 8 10 10 10 12 13 14 14 15 14 13 13 15 15 16 17 17 16 16 17 18 19 17 15 14 13 12 13 14 14
3 3 4 3 6 9 9 8 7 9 18 16 13 10 9 9 12 10 11 12 13 14 14 14 13 13 15 14 15 16 15 16 17 18 19 17 19 18 16 14 13 12 14 14 15
4 4 3 4 8 11 8 7 9 12 22 15 13 9 10 11 12 12 11 12 14 13 13 14 15 15 15 14 14 15 16 17 17 18 21 20 21 18 18 16 13 12 14 14 15
4 4 4 6 8 9 9 10 11 17 22 17 12 12 13 12 12 12 12 12 13 14 15 14 14 14 14 15 16 15 16 17 20 20 23 18 19 20 19 17 15 13 14 14 16
3 4 5 7 9 8 8 11 18 22 16 17 14 14 14 14 13 13 14 15 15 16 16 15 16 15 14 15 15 16 17 20 21 23 20 21 22 18 16 16 14 13 14 15 16
3 3 4 6 8 9 12 13 21 19 18 14 13 14 14 13 14 13 15 16 14 15 17 17 17 16 15 14 15 17 16 18 23 22 19 22 23 18 16 14 15 16 16 16 17
3 5 6 6 6 8 13 19 19 18 15 15 13 15 15 13 13 15 15 15 14 12 14 16 16 16 16 16 15 17 18 16 19 30 25 20 19 17 17 17 17 16 17 17 17
4 6 6 6 7 8 15 16 17 14 15 15 17 16 18 15 16 16 17 16 15 13 12 15 16 18 18 18 19 18 17 19 20 24 27 20 19 18 17 16 15 15 16 16 17
5 8 7 5 5 9 15 16 16 14 14 15 16 17 16 17 16 17 16 15 14 14 13 14 15 17 19 19 19 19 20 19 18 20 23 22 20 18 16 15 14 14 15 16 16
6 11 8 5 11 11 15 15 13 14 14 14 15 15 17 15 15 16 16 13 12 13 14 13 13 15 16 20 19 18 17 17 19 21 22 22 20 16 16 15 15 15 16 16 16
8 9 7 6 14 14 15 15 14 15 15 15 15 15 15 16 17 16 15 14 14 14 14 13 16 19 18 20 20 20 19 18 19 19 20 21 19 15 17 16 16 16 16 16 17
8 12 11 10 10 12 13 14 15 13 13 14 15 14 16 17 14 15 17 16 14 14 11 12 16 17 19 17 19 21 20 18 18 19 19 19 17 15 13 14 14 16 17 17 17
6 10 11 14 13 12 12 13 14 15 14 13 14 14 15 16 16 16 15 15 16 14 15 14 17 15 15 14 17 18 18 19 20 18 19 17 16 15 13 13 12 12 11 13 18
8 9 9 11 11 12 11 13 14 12 14 15 15 14 14 15 15 16 14 14 15 18 17 16 16 15 17 15 15 17 16 15 16 17 17 16 16 13 12 11 12 12 11 13 14
3 4 7 10 11 12 13 12 12 11 11 12 13 13 14 14 11 11 11 12 12 14 17 17 18 19 19 16 17 20 17 15 15 14 14 17 14 12 13 13 12 12 12 12 12

GFSSW_con_lsi_024.txt.gz
Lid_Strength_Index
1 1 1 1 0 -0 -1 -1 -1 -1 -0 -0 -0 -0 -1 -1 -0 5 6 4 3 -1 -0 5 5 5 4 5 5 6 8 9 9 10 9 9 9 9 9 9 9 8 9 9 8
1 1 1 0 0 0 0 -0 -0 -1 -0 -0 -0 -0 -0 0 4 6 2 0 -1 -1 5 5 6 5 5 6 6 6 8 9 8 8 8 8 8 8 9 9 9 9 9 10 9
1 1 1 1 1 0 0 0 -0 -0 -0 -0 -0 -0 0 1 5 5 1 -1 -1 0 5 5 5 5 6 6 7 8 9 8 8 8 8 8 9 8 8 9 7 7 7 10 10
1 1 1 1 1 1 0 0 0 -0 -0 0 -0 -0 0 3 9 5 -1 -0 0 3 5 6 6 7 7 8 7 9 9 8 8 8 9 9 8 9 8 6 7 6 7 9 10
2 2 2 1 1 1 0 0 0 0 0 0 -0 0 2 6 5 4 1 3 4 5 6 6 6 7 7 8 8 8 8 8 8 8 8 9 9 8 9 7 7 9 9 9 9
2 2 2 2 1 1 1 0 0 0 0 0 -0 0 4 8 4 4 5 6 6 5 6 6 6 6 8 8 8 8 8 8 8 8 9 9 8 10 7 7 8 9 9 9 9
2 2 2 2 1 1 1 0 0 0 0 0 -0 2 5 6 4 4 5 6 6 6 6 6 6 6 6 8 8 9 10 9 9 9 9 9 10 10 6 9 9 10 9 9 9
3 3 2 2 2 1 1 0 0 1 1 0 0 3 6 4 3 5 5 6 6 6 6 6 6 6 8 8 9 10 10 10 9 9 10 9 11 7 7 9 9 8 9 10 10
4 3 3 2 2 1 1 1 1 1 0 0 3 4 7 3 5 4 5 6 6 6 5 6 6 7 8 9 9 10 11 11 11 9 10 10 10 8 9 10 9 8 8 9 10
4 4 3 3 2 1 1 1 2 2 2 4 5 6 6 7 5 5 6 6 7 6 6 6 6 8 9 9 12 11 11 11 11 10 11 11 11 9 8 10 9 8 7 8 10
4 4 4 3 3 1 2 4 6 7 6 6 7 7 7 5 5 6 6 6 6 7 9 8 9 10 8 8 9 10 11 11 9 11 11 11 11 10 9 9 9 9 8 8 9
4 4 4 3 3 2 5 6 7 7 9 7 8 8 7 5 8 7 7 8 8 10 9 9 11 8 8 10 10 10 11 11 10 12 12 11 12 11 10 9 9 8 8 8 8
3 4 4 4 3 5 8 7 5 5 8 8 8 8 7 6 8 7 8 8 9 10 10 11 9 10 10 11 11 11 11 10 12 12 12 13 13 12 11 10 9 9 8 8 8
3 3 4 4 6 6 7 6 6 6 13 13 11 8 7 7 9 8 8 8 10 10 10 10 10 10 11 11 10 12 10 11 12 13 14 13 16 12 11 11 11 8 8 9 9
3 3 4 4 6 7 8 6 6 9 18 12 11 8 8 9 10 10 8 9 10 11 10 11 12 12 12 11 10 11 12 13 13 14 15 13 16 13 14 13 11 9 8 9 9
3 3 4 5 6 6 7 8 9 15 20 14 10 11 10 10 11 10 10 9 9 10 11 10 11 11 10 13 12 13 13 14 15 14 17 13 14 14 14 13 11 10 9 9 10
3 3 4 4 6 6 7 9 15 18 15 15 12 11 11 12 12 11 12 12 12 13 13 11 11 12 12 12 12 12 12 14 15 16 16 15 17 15 12 11 11 10 9 10 10
2 3 3 4 4 5 8 11 18 15 15 12 13 13 13 11 11 11 12 12 11 12 13 13 13 13 11 10 10 13 11 14 18 17 16 17 19 14 12 11 10 11 11 11 11
3 4 4 4 5 6 10 15 16 14 13 14 13 14 14 13 12 12 12 12 10 10 12 13 13 13 13 13 11 14 14 12 14 19 18 15 13 13 13 13 12 12 12 11 11
4 6 6 4 5 6 12 15 14 12 13 12 14 12 14 13 14 13 13 12 12 12 9 12 14 14 16 15 15 14 14 16 15 18 19 17 15 14 13 13 12 12 11 10 11
5 8 6 5 5 9 14 15 13 12 12 13 13 14 14 13 13 14 13 12 11 11 11 12 12 15 16 16 14 17 16 16 16 16 17 18 17 13 12 12 12 11 10 9 10
6 11 7 6 11 11 14 12 12 13 12 12 13 13 13 13 14 14 14 12 10 12 13 10 11 13 13 16 16 15 14 14 16 17 16 16 17 13 11 11 12 11 11 10 11
8 9 7 6 14 14 12 12 12 13 12 13 13 12 12 14 16 14 13 11 12 12 13 13 14 16 15 17 17 17 16 14 14 15 17 17 17 12 11 11 11 11 10 11 11
6 11 10 9 9 11 12 13 13 11 11 13 14 13 13 15 13 14 14 13 12 11 11 11 14 15 17 15 15 17 17 16 15 17 16 16 15 13 12 11 11 10 11 11 11
6 9 10 14 12 11 10 11 12 13 11 12 14 14 13 15 14 14 13 12 13 12 12 13 16 14 14 13 14 14 14 15 17 16 17 15 14 12 11 11 10 10 10 10 10
7 8 8 9 9 10 10 11 12 10 10 12 13 12 12 14 13 14 13 13 14 15 13 13 16 15 17 14 14 15 14 14 14 14 14 14 15 11 11 10 10 10 10 10 10
5 5 7 9 10 11 11 11 11 9 9 9 10 11 12 12 10 10 10 10 11 12 14 15 15 16 18 14 15 18 15 14 14 12 13 15 12 10 11 10 10 10 10 10 10

GFSSW_con_lsi_027.txt.gz
Lid_Strength_Index
1 1 0 0 0 0 0 -0 -0 -0 -0 -0 -0 -0 -1 -1 0 3 5 3 2 -1 0 3 4 4 3 4 4 4 8 8 8 9 8 7 7 7 7 6 7 6 6 7 6
1 1 1 0 0 0 0 0 0 -0 -0 -0 0 -0 -0 -0 2 4 1 0 -1 -1 4 4 5 4 4 5 5 6 7 7 7 7 7 7 7 6 8 7 7 7 6 8 7
2 2 1 1 1 0 0 0 0 0 0 -0 0 -0 -0 1 5 4 -0 -1 -1 0 4 4 4 4 5 5 5 6 8 7 7 6 7 7 7 6 7 8 6 6 6 7 8
2 2 2 2 1 1 0 0 0 0 0 0 0 -0 0 2 8 4 -0 0 0 2 4 5 5 6 6 6 5 8 6 6 6 7 7 7 6 7 7 6 5 4 4 6 8
2 2 2 2 2 1 1 0 0 0 0 0 -0 -0 2 5 5 3 2 2 3 4 5 5 5 5 7 6 6 7 6 7 6 7 7 7 8 7 6 5 4 6 6 6 7
2 2 2 2 2 1 1 1 0 0 0 0 0 0 3 8 3 3 4 4 4 4 5 5 5 4 6 7 7 7 7 7 6 7 7 8 8 8 6 5 5 5 7 6 7
3 3 3 3 2 2 1 1 0 0 0 0 -0 1 4 6 3 3 4 4 5 4 5 5 4 5 5 6 6 7 9 7 7 7 8 8 9 9 6 6 6 6 6 7 6
3 4 4 4 3 3 2 1 1 1 0 0 -0 2 6 3 2 4 4 5 4 4 4 4 4 5 6 6 7 8 8 10 7 7 8 8 10 7 5 7 7 7 6 7 7
4 4 4 3 3 3 3 2 1 1 1 0 2 3 7 4 5 3 4 5 5 5 4 5 4 5 7 8 8 8 10 9 8 8 8 9 9 7 6 7 7 7 6 6 7
4 4 4 4 4 3 3 2 2 2 2 3 4 6 5 6 4 4 5 5 6 5 6 6 6 7 7 8 12 10 10 9 10 8 9 9 10 7 6 7 7 7 7 6 6
4 4 3 4 3 3 3 5 6 7 5 6 6 6 7 4 4 5 5 6 6 6 8 7 9 10 8 7 8 8 10 10 9 8 9 9 9 8 7 7 7 7 7 6 6
3 3 3 3 3 3 4 7 6 7 10 7 6 6 6 4 6 6 6 8 8 9 8 9 11 8 7 8 8 9 10 10 9 8 10 10 10 8 8 8 7 7 7 7 6
3 3 3 3 3 4 6 7 5 5 9 9 7 8 7 6 7 7 7 7 8 9 9 10 9 8 9 9 10 10 11 10 10 9 11 11 12 10 9 8 8 7 7 7 7
3 3 3 3 5 4 6 5 5 6 13 12 11 9 7 7 10 7 7 7 9 10 9 10 8 9 9 11 10 12 9 9 10 11 13 11 15 11 9 9 8 8 7 6 6
3 3 3 4 5 5 6 5 5 7 17 12 12 8 8 10 10 10 8 9 10 10 9 11 10 11 11 10 9 11 11 11 11 12 12 12 14 12 11 11 10 9 7 7 7
3 3 3 3 3 4 5 6 7 14 18 13 11 11 11 10 11 11 10 8 9 10 10 10 10 10 9 11 10 11 11 11 12 12 16 13 13 13 11 12 10 10 9 8 8
3 3 4 4 5 3 4 6 14 17 12 13 12 11 11 11 11 12 13 13 12 14 13 10 10 9 10 11 11 11 12 14 15 16 16 11 13 12 10 9 9 9 9 8 8
2 3 4 4 3 3 6 10 17 14 12 11 11 11 12 11 11 11 12 13 12 11 11 12 13 10 10 10 9 12 11 14 18 16 15 13 16 13 9 9 9 9 8 8 9
2 3 4 4 3 4 9 15 15 13 10 11 11 12 12 11 11 11 11 11 10 11 14 14 13 12 11 11 9 12 13 10 13 15 16 15 13 10 10 10 10 9 10 9 9
3 4 5 3 5 7 13 15 12 10 11 11 14 12 13 12 13 12 12 10 10 9 8 10 14 12 15 13 13 12 11 14 13 18 18 16 14 13 11 11 10 10 10 9 8
3 6 3 3 5 9 16 15 12 10 10 13 13 12 12 12 11 12 12 10 10 10 9 10 11 13 14 15 14 16 15 15 15 14 17 18 16 11 11 10 10 10 10 9 8
4 9 3 4 10 11 15 13 11 10 11 11 12 12 13 12 12 12 12 11 9 10 13 11 13 15 13 11 14 13 13 13 16 17 15 16 17 11 10 9 9 10 9 8 8
6 7 4 4 12 14 12 12 11 11 11 13 13 12 12 14 15 13 12 10 10 11 12 12 15 17 15 15 16 15 14 14 13 14 16 17 17 11 10 10 10 10 9 9 9
6 10 8 7 7 9 12 12 12 10 10 10 12 12 13 15 13 15 13 10 9 10 10 11 13 15 17 15 13 15 14 14 14 16 16 16 14 12 11 10 9 9 8 8 8
6 9 7 11 10 9 9 10 12 12 9 10 11 12 12 14 13 14 13 12 11 11 12 12 16 14 14 13 13 14 14 14 16 15 16 15 14 12 11 10 9 9 9 9 9
7 8 7 8 8 9 10 11 11 10 10 10 11 10 11 13 12 12 11 11 12 13 13 12 16 14 16 14 14 15 14 13 14 14 14 14 15 11 10 10 10 9 9 9 9
5 6 10 10 10 10 11 10 10 9 8 8 8 9 10 9 9 8 8 8 9 12 13 14 15 16 18 14 14 17 15 14 14 13 13 15 12 9 10 10 9 8 8 8 8